Location: ?ejeti?ky
(50.4060°N, 14.9016°E)
Time: 21:58:17
(UTC+00:00)

STARLINK-1364 - Pass Details

Date: 07 October 2020
Orbit: 548 x 551 km, 53.0° (Epoch: 23 October)

Event Time Altitude Azimuth Distance (km) Brightness Sun altitude
Exits shadow 04:30:21 - 283° (WNW) 1,939 5.8 -7.2°
Reaches altitude 10° 04:30:40 10° 282° (WNW) 1,828 5.6 -7.2°
Maximum altitude 04:34:24 33° 217° (SW) 937 4.5 -6.6°
Drops below altitude 10° 04:38:08 10° 153° (SSE) 1,821 6.7 -6.0°
Sets 04:40:30 0° 144° (SE) 2,712 7.8 -5.6°
